| time (UTC) | temp F | wind direction | speed MPH | gust MPH | rain 1hr in | rain 24hr in | rain mn in | humidity % | barometer mb |
| 20260503190522 | 47 | 315 | 9.0 | 13.0 | 0.00 | 0.00 | 0.00 | 45 | 987.6 |
| 20260503185623 | 47 | 293 | 7.0 | 14.0 | 0.00 | 0.00 | 0.00 | 47 | 987.6 |
| 20260503184720 | 46 | 293 | 11.0 | 17.0 | 0.00 | 0.00 | 0.00 | 46 | 987.6 |
| 20260503183720 | 47 | 293 | 11.0 | 16.0 | 0.00 | 0.00 | 0.00 | 46 | 987.6 |
| 20260503182719 | 47 | 293 | 9.0 | 24.0 | 0.00 | 0.00 | 0.00 | 46 | 987.5 |
| 20260503181720 | 48 | 23 | 10.0 | 21.0 | 0.00 | 0.00 | 0.00 | 45 | 987.3 |
| 20260503180719 | 49 | 338 | 4.0 | 8.0 | 0.00 | 0.00 | 0.00 | 45 | 987.3 |
| 20260503175719 | 49 | 293 | 5.0 | 11.0 | 0.00 | 0.00 | 0.00 | 44 | 987.2 |
| 20260503174720 | 48 | 338 | 3.0 | 8.0 | 0.00 | 0.00 | 0.00 | 43 | 987.1 |
| 20260503173930 | 47 | 315 | 8.0 | 13.0 | 0.00 | 0.00 | 0.00 | 42 | 987.1 |
| 20260503172721 | 47 | 315 | 9.0 | 14.0 | 0.00 | 0.00 | 0.00 | 46 | 987.2 |
| 20260503171845 | 48 | 315 | 7.0 | 15.0 | 0.00 | 0.00 | 0.00 | 43 | 987.1 |
| 20260503131019 | 42 | 23 | 2.0 | 6.0 | 0.00 | 0.01 | 0.00 | 78 | 988.4 |
| 20260503110124 | 38 | 0.0 | 0.0 | 0.00 | 0.01 | 0.00 | 89 | 988.5 | |
| 20260503081532 | 37 | 0.0 | 0.0 | 0.00 | 0.06 | 0.00 | 90 | 988.9 | |
| 20260503080723 | 37 | 0.0 | 0.0 | 0.00 | 0.06 | 0.00 | 90 | 988.9 | |
| 20260503072619 | 37 | 0.0 | 0.0 | 0.00 | 0.06 | 0.00 | 89 | 989.1 | |
| 20260503071618 | 37 | 0.0 | 0.0 | 0.00 | 0.07 | 0.00 | 89 | 989.2 | |
| 20260503070618 | 37 | 0.0 | 0.0 | 0.00 | 0.07 | 0.00 | 88 | 989.3 | |
| 20260503054818 | 37 | 0.0 | 0.0 | 0.00 | 0.12 | 0.00 | 89 | 989.9 | |
| 20260503053818 | 37 | 0.0 | 0.0 | 0.00 | 0.13 | 0.00 | 89 | 989.9 | |
| 20260503052819 | 37 | 0.0 | 0.0 | 0.00 | 0.14 | 0.00 | 88 | 990.0 | |
| 20260503051820 | 37 | 0.0 | 0.0 | 0.00 | 0.15 | 0.00 | 88 | 989.9 | |
| 20260503050818 | 37 | 0.0 | 0.0 | 0.00 | 0.15 | 0.00 | 86 | 990.0 | |
| 20260503045818 | 37 | 0.0 | 0.0 | 0.00 | 0.15 | 0.00 | 85 | 990.3 | |
| 20260503044818 | 37 | 0.0 | 0.0 | 0.00 | 0.15 | 0.00 | 84 | 990.1 | |
| 20260503043818 | 38 | 0.0 | 0.0 | 0.00 | 0.15 | 0.00 | 83 | 990.4 | |
| 20260503042818 | 38 | 0.0 | 0.0 | 0.00 | 0.15 | 0.00 | 82 | 990.4 | |
| 20260503041818 | 39 | 0.0 | 0.0 | 0.00 | 0.15 | 0.00 | 80 | 990.8 | |
| 20260503040818 | 39 | 0.0 | 0.0 | 0.00 | 0.15 | 0.00 | 80 | 990.9 | |
| 20260503035819 | 39 | 0.0 | 0.0 | 0.00 | 0.15 | 0.15 | 79 | 991.0 | |
| 20260503034818 | 39 | 0.0 | 0.0 | 0.00 | 0.15 | 0.15 | 80 | 990.9 | |
| 20260503033819 | 40 | 0.0 | 0.0 | 0.00 | 0.15 | 0.15 | 79 | 991.0 | |
| 20260503032823 | 40 | 0.0 | 0.0 | 0.00 | 0.15 | 0.15 | 79 | 991.1 | |
| 20260503031819 | 41 | 0.0 | 0.0 | 0.00 | 0.15 | 0.15 | 78 | 991.0 | |
| 20260503030818 | 41 | 0.0 | 0.0 | 0.00 | 0.15 | 0.15 | 78 | 991.1 | |
| 20260503025818 | 41 | 0.0 | 0.0 | 0.00 | 0.15 | 0.15 | 78 | 991.1 | |
| 20260503024818 | 42 | 0.0 | 0.0 | 0.00 | 0.15 | 0.15 | 77 | 991.2 | |
| 20260503023818 | 42 | 0.0 | 0.0 | 0.00 | 0.15 | 0.15 | 76 | 991.2 | |
| 20260503022820 | 42 | 0.0 | 0.0 | 0.00 | 0.15 | 0.15 | 77 | 991.3 | |
| 20260503021819 | 42 | 315 | 1.0 | 3.0 | 0.00 | 0.15 | 0.15 | 76 | 991.5 |
| 20260503020818 | 42 | 0.0 | 1.0 | 0.00 | 0.15 | 0.15 | 76 | 991.4 | |
| 20260503015818 | 42 | 315 | 1.0 | 2.0 | 0.00 | 0.15 | 0.15 | 76 | 991.5 |
| 20260503014818 | 42 | 338 | 1.0 | 2.0 | 0.00 | 0.15 | 0.15 | 76 | 991.5 |
| 20260503013820 | 43 | 0.0 | 0.0 | 0.00 | 0.15 | 0.15 | 76 | 991.5 | |
| 20260503012818 | 43 | 0.0 | 1.0 | 0.00 | 0.15 | 0.15 | 76 | 991.4 | |
| 20260503011818 | 43 | 0.0 | 0.0 | 0.00 | 0.15 | 0.15 | 77 | 991.4 | |
| 20260503010818 | 43 | 338 | 2.0 | 6.0 | 0.00 | 0.15 | 0.15 | 77 | 991.3 |
| 20260503005820 | 44 | 315 | 1.0 | 4.0 | 0.00 | 0.15 | 0.15 | 76 | 991.3 |
| 20260503004818 | 44 | 293 | 2.0 | 5.0 | 0.00 | 0.15 | 0.15 | 76 | 991.2 |
| 20260503003818 | 45 | 293 | 2.0 | 7.0 | 0.00 | 0.15 | 0.15 | 74 | 991.1 |
| 20260503002818 | 45 | 293 | 8.0 | 13.0 | 0.00 | 0.15 | 0.15 | 74 | 991.0 |
| 20260503001818 | 46 | 293 | 5.0 | 11.0 | 0.00 | 0.15 | 0.15 | 71 | 990.9 |
| 20260503000818 | 47 | 293 | 11.0 | 16.0 | 0.00 | 0.15 | 0.15 | 72 | 990.5 |
| 20260502235818 | 48 | 293 | 2.0 | 3.0 | 0.00 | 0.15 | 0.15 | 84 | 990.5 |
| 20260502234818 | 49 | 0.0 | 0.0 | 0.00 | 0.15 | 0.15 | 81 | 990.2 | |
| 20260502233818 | 50 | 0.0 | 0.0 | 0.00 | 0.15 | 0.15 | 79 | 990.2 | |
| 20260502232818 | 50 | 0.0 | 0.0 | 0.00 | 0.15 | 0.15 | 82 | 990.2 | |
| 20260502231818 | 49 | 0.0 | 0.0 | 0.00 | 0.15 | 0.15 | 83 | 990.0 | |
| 20260502230820 | 49 | 0.0 | 0.0 | 0.00 | 0.15 | 0.15 | 82 | 990.0 | |
| 20260502225818 | 49 | 0.0 | 0.0 | 0.00 | 0.15 | 0.15 | 81 | 990.0 | |
| 20260502224818 | 49 | 0.0 | 0.0 | 0.00 | 0.15 | 0.15 | 80 | 989.9 | |
| 20260502223818 | 50 | 0.0 | 0.0 | 0.00 | 0.15 | 0.15 | 79 | 989.8 | |
| 20260502222818 | 50 | 0.0 | 0.0 | 0.00 | 0.15 | 0.15 | 75 | 989.8 | |
| 20260502221818 | 50 | 0.0 | 0.0 | 0.00 | 0.15 | 0.15 | 72 | 989.8 | |
| 20260502220818 | 50 | 0.0 | 0.0 | 0.00 | 0.15 | 0.15 | 65 | 989.7 | |
| 20260502215818 | 50 | 293 | 4.0 | 5.0 | 0.00 | 0.15 | 0.15 | 62 | 989.6 |
| 20260502214818 | 50 | 0.0 | 0.0 | 0.00 | 0.15 | 0.15 | 66 | 989.5 | |
| 20260502213818 | 49 | 0 | 3.0 | 7.0 | 0.00 | 0.15 | 0.15 | 66 | 989.5 |
| 20260502212818 | 49 | 315 | 1.0 | 3.0 | 0.00 | 0.15 | 0.15 | 68 | 989.6 |
| 20260502211818 | 49 | 0.0 | 1.0 | 0.00 | 0.15 | 0.15 | 75 | 989.6 | |
| 20260502210820 | 49 | 0.0 | 1.0 | 0.00 | 0.15 | 0.15 | 78 | 989.5 | |
| 20260502205820 | 49 | 0.0 | 0.0 | 0.00 | 0.15 | 0.15 | 83 | 989.6 | |
| 20260502204820 | 49 | 0.0 | 0.0 | 0.00 | 0.15 | 0.15 | 81 | 989.6 | |
| 20260502203820 | 49 | 0.0 | 0.0 | 0.00 | 0.15 | 0.15 | 84 | 989.5 | |
| 20260502202820 | 49 | 0.0 | 0.0 | 0.00 | 0.15 | 0.15 | 83 | 989.6 | |
| 20260502201820 | 49 | 0.0 | 0.0 | 0.00 | 0.15 | 0.15 | 85 | 989.6 | |
| 20260502200819 | 49 | 0.0 | 0.0 | 0.00 | 0.15 | 0.15 | 85 | 989.6 | |
| 20260502195820 | 49 | 0.0 | 0.0 | 0.00 | 0.15 | 0.15 | 84 | 989.7 | |
| 20260502194819 | 50 | 0.0 | 1.0 | 0.00 | 0.15 | 0.15 | 83 | 989.8 | |
| 20260502193819 | 50 | 0.0 | 0.0 | 0.00 | 0.15 | 0.15 | 82 | 989.9 | |
| 20260502192822 | 50 | 0.0 | 0.0 | 0.00 | 0.15 | 0.15 | 83 | 989.9 | |
| 20260502191819 | 49 | 0.0 | 0.0 | 0.00 | 0.15 | 0.15 | 78 | 989.9 |